[[{"header":{"parameterUnit":"m.s-1","parameterCategory":1,"la1":30.2991,"la2":30.254,"lo1":-89.0895,"lo2":-89.0444,"dy":0.0017,"dx":0.0017,"nx":28,"ny":28,"refTime":"2023-09-09T09:00:00:Z","depth":0,"parameterNumber":2,"parameterNumberName":"U-component_of_WINDS"},"data":[0,0,0,0,0,0,0,0,0,0,0,0,0,0,0,0,0,0,0,0,0,0,0,0,0,0,0,0,0,0,0,0,0,0,0,0,0,0,0,0,0,0,0,0,0,0,0,0,0,0,0,0,0,0,0,0,0,0,-1.0217,-1.0217,0,-1.0235,-1.0235,-1.0235,-1.0162,-1.016,-1.0158,-1.0156,-1.0178,-1.018,-1.0183,0,0,0,0,0,0,0,0,0,0,0,0,0,-1.012,-1.0123,-1.0217,-1.0217,-1.0217,-1.0235,-1.0235,-1.0235,-1.0163,-1.016,-1.0157,-1.0155,-1.0177,-1.018,-1.0183,0,0,0,0,0,0,0,0,0,0,0,0,0,-1.0153,-1.0123,-1.0217,-1.0183,-1.018,-1.0235,-1.0235,-1.0235,-1.0163,-1.016,-1.0157,-1.0154,-1.0176,-1.018,-1.0184,-1.0273,0,0,-1.0196,-1.0197,0,0,0,0,0,0,0,0,-1.0151,-1.0157,-1.0188,-1.0185,-1.0182,-1.0193,-1.0209,-1.0248,-1.0164,-1.017,-1.0156,-1.0152,-1.0186,-1.0189,-1.0199,-1.0274,-1.0275,-1.0196,-1.0198,-1.02,-1.0201,0,0,0,0,0,0,0,-1.0149,-1.0155,-1.0224,-1.0188,-1.0185,-1.0167,-1.0168,-1.0216,-1.0196,-1.0169,-1.0164,-1.0167,-1.0184,-1.0196,-1.0199,-1.0275,-1.0196,-1.0199,-1.0202,-1.0203,-1.0422,-1.0425,0,0,0,0,0,0,-1.0151,-1.0154,-1.0223,-1.0224,-1.0158,-1.0172,-1.0173,-1.0193,-1.0195,-1.0192,-1.0169,-1.0163,-1.0191,-1.0195,-1.02,-1.0303,-1.02,-1.0204,-1.0206,-1.0419,-1.0423,-1.0427,0,0,0,0,0,0,-1.0149,-1.0158,-1.0223,-1.0188,-1.0195,-1.0177,-1.02,-1.0195,-1.0207,-1.0195,-1.0192,-1.0185,-1.0188,-1.0194,-1.0255,-1.0303,-1.0205,-1.0209,-1.0415,-1.042,-1.0425,-1.0513,0,0,0,0,0,0,-1.0147,-1.0158,-1.0191,-1.0189,-1.0197,-1.0277,-1.0203,-1.0197,-1.0213,-1.0205,-1.0209,-1.0207,-1.0186,-1.0249,-1.0258,-1.0307,-1.0212,-1.041,-1.0417,-1.0423,-1.0505,-1.052,-1.0533,0,0,0,0,0,-1.0144,-1.0216,-1.0193,-1.0202,-1.0238,-1.028,-1.0284,-1.0258,-1.0218,-1.0251,-1.0243,-1.0207,-1.0296,-1.0256,-1.0266,-1.0316,-1.0407,-1.0415,-1.0423,-1.0499,-1.0517,-1.0532,0,0,0,0,0,0,-1.0227,-1.0215,-1.019,-1.0264,-1.0273,-1.0268,-1.0309,-1.0278,-1.03,-1.0292,-1.0259,-1.0261,-1.0327,-1.0327,-1.0283,-1.0402,-1.0345,-1.0355,-1.0399,-1.0416,-1.043,-1.0429,-1.0215,0,0,0,0,0,-1.0253,-1.0287,-1.0276,-1.0342,-1.0348,-1.0328,-1.0345,-1.0324,-1.0333,-1.0337,-1.0333,-1.0344,-1.0374,-1.0395,-1.0423,-1.0504,-1.0504,-1.0544,-1.0557,-1.0569,-1.0578,-1.0621,-1.0638,-1.0452,-1.0452,-1.0452,0,0,-1.0309,-1.0307,-1.0331,-1.0359,-1.0364,-1.04,-1.0332,-1.0374,-1.0401,-1.0343,-1.04,-1.0398,-1.0407,-1.0479,-1.051,-1.0481,-1.0629,-1.0579,-1.0588,-1.0591,-1.0631,-1.0648,-1.0664,-1.0458,-1.0457,-1.0456,0,0,-1.043,-1.0432,-1.0487,-1.0492,-1.0499,-1.0485,-1.0498,-1.0497,-1.0493,-1.0548,-1.0506,-1.0537,-1.059,-1.0598,-1.061,-1.0731,-1.0698,-1.074,-1.0813,-1.0855,-1.0869,-1.0882,-1.0925,-1.0941,-1.075,-1.075,-1.075,0,-1.0499,-1.0551,-1.0519,-1.0563,-1.0577,-1.0524,-1.058,-1.0587,-1.0603,-1.0614,-1.0581,-1.0645,-1.0648,-1.072,-1.0749,-1.076,-1.0774,-1.0741,-1.087,-1.0882,-1.0894,-1.0934,-1.0951,-1.0755,-1.0755,-1.0754,-1.0754,0,-1.0636,-1.0673,-1.0716,-1.0731,-1.0749,-1.0799,-1.0775,-1.0797,-1.0773,-1.0763,-1.0819,-1.0821,-1.0847,-1.0862,-1.084,-1.093,-1.0912,-1.0875,-1.0817,-1.0917,-1.0955,-1.097,-1.0763,-1.0761,-1.0759,-1.0758,0,0,-1.0812,-1.0806,-1.0823,-1.0829,-1.0831,-1.086,-1.0906,-1.093,-1.095,-1.0962,-1.1001,-1.1046,-1.101,-1.1023,-1.1001,-1.1038,-1.1133,-1.0996,-1.0996,-1.1021,-1.1232,-1.126,-1.1279,-1.111,-1.1113,-1.1115,-1.1231,0,-1.093,-1.1009,-1.098,-1.1061,-1.1095,-1.1044,-1.1085,-1.1091,-1.1082,-1.1109,-1.1099,-1.1131,-1.1082,-1.1089,-1.1123,-1.1114,-1.1175,-1.1105,-1.1147,-1.1148,-1.1146,-1.1299,-1.1329,-1.1439,-1.1246,-1.1248,-1.125,0,-1.108,-1.1096,-1.118,-1.1175,-1.1188,-1.1225,-1.1243,-1.127,-1.1276,-1.1266,-1.1279,-1.1249,-1.1294,-1.1235,-1.1298,-1.1251,-1.1266,-1.1264,-1.1267,-1.1271,-1.1206,-1.1307,-1.1473,-1.1489,-1.1273,-1.1271,-1.1269,0,-1.12,-1.1242,-1.1298,-1.1304,-1.13,-1.1327,-1.1327,-1.1329,-1.1344,-1.1361,-1.137,-1.1393,-1.1405,-1.1423,-1.1399,-1.1358,-1.1465,-1.1404,-1.1459,-1.146,-1.1485,-1.1484,-1.1656,-1.1493,-1.1493,-1.1493,-1.1492,0,-1.1335,-1.1389,-1.1351,-1.1386,-1.1443,-1.1409,-1.1468,-1.1462,-1.1464,-1.1496,-1.1454,-1.1485,-1.1452,-1.148,-1.1462,-1.1516,-1.1522,-1.1516,-1.1511,-1.152,-1.1521,-1.153,-1.1522,-1.1497,-1.1496,-1.1495,-1.1495,0,-1.148,-1.1457,-1.1514,-1.1504,-1.1503,-1.1546,-1.1538,-1.1569,-1.1555,-1.1597,-1.1605,-1.1584,-1.1615,-1.1592,-1.1624,-1.1611,-1.1682,-1.1666,-1.168,-1.1676,-1.1732,-1.1727,-1.1917,-1.194,-1.1762,-1.1764,-1.1765,0,-1.1569,-1.1608,-1.1601,-1.1619,-1.1621,-1.1651,-1.1665,-1.1633,-1.165,-1.1658,-1.1689,-1.1715,-1.1735,-1.1787,-1.1775,-1.1798,-1.1783,-1.1847,-1.1786,-1.1794,-1.1784,-1.1782,-1.1785,-1.186,-1.1862,-1.1864,-1.1866,0,-1.1728,-1.1714,-1.1736,-1.1754,-1.1773,-1.1786,-1.1796,-1.1813,-1.178,-1.1801,-1.1831,-1.1847,-1.1877,-1.1904,-1.1922,-1.1922,-1.1889,-1.1884,-1.1898,-1.1909,-1.1915,-1.1912,-1.1715,-1.1881,-1.1879,-1.1878,-1.1877,-1.1877,-1.1847,-1.1879,-1.1879,-1.1905,-1.1908,-1.1918,-1.1946,-1.1935,-1.1959,-1.198,-1.196,-1.1996,-1.1999,-1.202,-1.2024,-1.2052,-1.2025,-1.2046,-1.2051,-1.2056,-1.2064,-1.191,-1.2055,-1.2055,-1.2054,-1.2054,-1.2053,0,-1.2005,-1.2001,-1.2025,-1.2039,-1.2059,-1.2023,-1.2032,-1.2051,-1.2083,-1.2088,-1.2107,-1.2141,-1.2167,-1.2156,-1.2178,-1.2203,-1.2188,-1.221,-1.2208,-1.2208,-1.2087,-1.2072,-1.2221,-1.2221,-1.2221,-1.2221,-1.2221,-1.2221,-1.2089,-1.2141,-1.2127,-1.218,-1.2176,-1.221,-1.2217,-1.2226,-1.2229,-1.2268,-1.2288,-1.228,-1.2279,-1.23,-1.2322,-1.2318,-1.2328,-1.2356,-1.2347,-1.2234,-1.2217,-1.2201,-1.2188,-1.2359,-1.2359,-1.2466,-1.2467,-1.2468]},{"header":{"parameterUnit":"m.s-1","parameterCategory":1,"la1":30.2991,"la2":30.254,"lo1":-89.0895,"lo2":-89.0444,"dy":0.0017,"dx":0.0017,"nx":28,"ny":28,"refTime":"2023-09-09T09:00:00:Z","depth":0,"parameterNumber":3,"parameterNumberName":"V-component_of_WINDS"},"data":[0,0,0,0,0,0,0,0,0,0,0,0,0,0,0,0,0,0,0,0,0,0,0,0,0,0,0,0,0,0,0,0,0,0,0,0,0,0,0,0,0,0,0,0,0,0,0,0,0,0,0,0,0,0,0,0,0,0,-2.2514,-2.2514,0,-2.2511,-2.2511,-2.2511,-2.2494,-2.2494,-2.2493,-2.2493,-2.2489,-2.2489,-2.2489,0,0,0,0,0,0,0,0,0,0,0,0,0,-2.2503,-2.2504,-2.2514,-2.2514,-2.2514,-2.2511,-2.2511,-2.2511,-2.2494,-2.2494,-2.2493,-2.2493,-2.2489,-2.2489,-2.2489,0,0,0,0,0,0,0,0,0,0,0,0,0,-2.2505,-2.2504,-2.2514,-2.2505,-2.2504,-2.2511,-2.2511,-2.2511,-2.2494,-2.2494,-2.2493,-2.2493,-2.2489,-2.2489,-2.2489,-2.2504,0,0,-2.2491,-2.2491,0,0,0,0,0,0,0,0,-2.2505,-2.2505,-2.2506,-2.2506,-2.2505,-2.2502,-2.2505,-2.2508,-2.2495,-2.2498,-2.2493,-2.2492,-2.2494,-2.2494,-2.2494,-2.2503,-2.2503,-2.2491,-2.2491,-2.2491,-2.2491,0,0,0,0,0,0,0,-2.2505,-2.2505,-2.2513,-2.2507,-2.2506,-2.2501,-2.25,-2.2506,-2.2499,-2.2498,-2.2497,-2.2497,-2.2493,-2.2494,-2.2494,-2.2503,-2.2491,-2.2491,-2.2491,-2.2491,-2.2521,-2.2522,0,0,0,0,0,0,-2.2506,-2.2505,-2.2513,-2.2512,-2.2503,-2.2502,-2.2501,-2.2504,-2.2499,-2.2498,-2.2497,-2.2496,-2.2494,-2.2494,-2.2494,-2.2509,-2.2491,-2.2491,-2.2492,-2.2521,-2.2521,-2.2522,0,0,0,0,0,0,-2.2506,-2.2507,-2.2513,-2.2509,-2.2509,-2.2502,-2.2505,-2.2504,-2.2505,-2.2499,-2.2497,-2.2499,-2.2493,-2.2493,-2.2501,-2.2508,-2.2492,-2.2492,-2.252,-2.2521,-2.2522,-2.2539,0,0,0,0,0,0,-2.2506,-2.2507,-2.2513,-2.2509,-2.2509,-2.252,-2.2506,-2.2504,-2.2506,-2.2504,-2.25,-2.2499,-2.2493,-2.25,-2.2501,-2.2509,-2.2492,-2.2519,-2.2521,-2.2522,-2.2538,-2.254,-2.2543,0,0,0,0,0,-2.2505,-2.2518,-2.2513,-2.2514,-2.2516,-2.2521,-2.2521,-2.2514,-2.2506,-2.2512,-2.2507,-2.2499,-2.2508,-2.2501,-2.2502,-2.251,-2.2519,-2.252,-2.2521,-2.2537,-2.254,-2.2543,0,0,0,0,0,0,-2.2523,-2.2517,-2.2512,-2.2524,-2.2523,-2.2518,-2.2525,-2.2518,-2.2519,-2.2517,-2.2508,-2.2507,-2.2516,-2.2514,-2.2507,-2.2522,-2.2512,-2.2513,-2.2523,-2.2526,-2.2528,-2.2528,-2.2493,0,0,0,0,0,-2.2528,-2.2533,-2.2527,-2.2538,-2.2538,-2.2532,-2.2533,-2.2528,-2.2526,-2.2526,-2.2522,-2.2521,-2.2523,-2.2525,-2.2526,-2.2538,-2.2536,-2.2543,-2.2546,-2.2548,-2.2549,-2.2553,-2.2556,-2.2526,-2.2526,-2.2526,0,0,-2.2539,-2.2536,-2.254,-2.2542,-2.254,-2.2544,-2.2531,-2.2537,-2.2539,-2.2527,-2.2533,-2.253,-2.2528,-2.2537,-2.2541,-2.2536,-2.2556,-2.2549,-2.2551,-2.2551,-2.2554,-2.2557,-2.256,-2.2527,-2.2527,-2.2527,0,0,-2.256,-2.256,-2.2568,-2.2566,-2.2565,-2.256,-2.2562,-2.2558,-2.2556,-2.2562,-2.2552,-2.2555,-2.256,-2.2558,-2.2557,-2.2577,-2.2569,-2.2578,-2.259,-2.2594,-2.2597,-2.2599,-2.2604,-2.2607,-2.2579,-2.2579,-2.2579,0,-2.2574,-2.258,-2.2573,-2.2578,-2.2578,-2.2567,-2.2575,-2.2574,-2.2573,-2.2573,-2.2567,-2.2571,-2.2569,-2.2577,-2.2581,-2.2582,-2.2583,-2.2578,-2.2597,-2.2599,-2.2601,-2.2606,-2.2608,-2.258,-2.258,-2.258,-2.258,0,-2.2596,-2.26,-2.2607,-2.2606,-2.2607,-2.2614,-2.2606,-2.2608,-2.2603,-2.2598,-2.2604,-2.2601,-2.2601,-2.2603,-2.2598,-2.261,-2.2606,-2.2599,-2.2588,-2.2605,-2.2609,-2.2611,-2.2582,-2.2581,-2.2581,-2.2581,0,0,-2.2628,-2.2622,-2.2625,-2.2623,-2.262,-2.2623,-2.2629,-2.2629,-2.263,-2.263,-2.2633,-2.2636,-2.2629,-2.2629,-2.2623,-2.2627,-2.2641,-2.2619,-2.2619,-2.2622,-2.2652,-2.2657,-2.2659,-2.2636,-2.2636,-2.2637,-2.2652,0,-2.2647,-2.2657,-2.265,-2.266,-2.2663,-2.2652,-2.2656,-2.2654,-2.265,-2.2652,-2.2647,-2.2649,-2.2641,-2.264,-2.2644,-2.2639,-2.2647,-2.2638,-2.2638,-2.2638,-2.2638,-2.2662,-2.2667,-2.2682,-2.2654,-2.2654,-2.2654,0,-2.2671,-2.2671,-2.2682,-2.2676,-2.2678,-2.2682,-2.2681,-2.2683,-2.268,-2.2677,-2.2676,-2.2668,-2.2672,-2.2663,-2.2667,-2.2661,-2.2661,-2.2658,-2.2659,-2.2657,-2.2646,-2.266,-2.2686,-2.2688,-2.2657,-2.2657,-2.2657,0,-2.2692,-2.2695,-2.2701,-2.27,-2.2695,-2.2698,-2.2696,-2.2692,-2.2692,-2.2691,-2.2691,-2.2691,-2.269,-2.2689,-2.2682,-2.2676,-2.2687,-2.2677,-2.2683,-2.2683,-2.2685,-2.2685,-2.271,-2.2687,-2.2687,-2.2687,-2.2687,0,-2.2713,-2.272,-2.271,-2.2713,-2.272,-2.2712,-2.2718,-2.2715,-2.2711,-2.2713,-2.2704,-2.2706,-2.2697,-2.2697,-2.2692,-2.2695,-2.2695,-2.2692,-2.269,-2.2692,-2.2692,-2.2691,-2.269,-2.2688,-2.2687,-2.2687,-2.2687,0,-2.2737,-2.2731,-2.2737,-2.2731,-2.2729,-2.2734,-2.2729,-2.2732,-2.2727,-2.2729,-2.273,-2.2722,-2.2722,-2.2715,-2.2714,-2.271,-2.2715,-2.2712,-2.2716,-2.2715,-2.2721,-2.272,-2.2746,-2.2748,-2.2725,-2.2725,-2.2725,0,-2.2751,-2.2755,-2.275,-2.2751,-2.2749,-2.275,-2.275,-2.2742,-2.2742,-2.2739,-2.2742,-2.2741,-2.274,-2.2741,-2.2735,-2.2734,-2.273,-2.2739,-2.2729,-2.2731,-2.2728,-2.2728,-2.2727,-2.274,-2.2741,-2.2741,-2.2741,0,-2.2775,-2.2771,-2.2772,-2.2771,-2.2771,-2.277,-2.2769,-2.277,-2.276,-2.2761,-2.2761,-2.2761,-2.2759,-2.2758,-2.2756,-2.2753,-2.2745,-2.2744,-2.2745,-2.2747,-2.2749,-2.2746,-2.272,-2.2743,-2.2743,-2.2743,-2.2743,-2.2743,-2.2793,-2.2796,-2.2792,-2.2793,-2.2791,-2.2789,-2.2791,-2.2786,-2.2786,-2.2785,-2.278,-2.278,-2.2776,-2.2772,-2.2769,-2.2769,-2.2765,-2.2767,-2.2767,-2.2767,-2.2768,-2.275,-2.2769,-2.2769,-2.2769,-2.2769,-2.2769,0,-2.2816,-2.2813,-2.2813,-2.2811,-2.2811,-2.2804,-2.2802,-2.2802,-2.2803,-2.28,-2.2799,-2.2798,-2.2797,-2.2791,-2.2789,-2.279,-2.2786,-2.279,-2.2789,-2.2788,-2.2773,-2.2771,-2.2793,-2.2793,-2.2793,-2.2793,-2.2793,-2.2793,-2.2827,-2.2832,-2.2828,-2.283,-2.2827,-2.2828,-2.2827,-2.2825,-2.2822,-2.2822,-2.2821,-2.2817,-2.2812,-2.281,-2.2808,-2.2806,-2.2805,-2.2809,-2.2806,-2.2792,-2.2789,-2.2787,-2.2786,-2.281,-2.281,-2.2821,-2.2821,-2.2822]}]]